Location: Dehesa de la Cepeda
(40.6574°N, 4.3013°W)
Time: 10:32:24
(UTC+00:00)

Transit 2A Rocket - Pass Details

Date: 06 August 2021
Orbit: 586 x 917 km, 66.7° (Epoch: 24 September)

Event Time Altitude Azimuth Distance (km) Brightness Sun altitude
Rises 13:38:40 0° 231° (SW) 2,844 8.4 60.9°
Reaches altitude 10° 13:40:59 10° 240° (WSW) 1,974 7.8 60.6°
Maximum altitude 13:45:05 36° 307° (NW) 1,017 6.2 60.1°
Drops below altitude 10° 13:49:32 10° 15° (NNE) 2,139 7.2 59.5°
Sets 13:52:09 0° 24° (NNE) 3,119 7.9 59.1°
